Weather in Ozernoye

Russia / Krasnoyarsk Krai     58°27′54″N   92°04′59″E
temp.,
°C
wind,
m/s
gust,
m/s
humid.,
%
clouds,
%
prec.,
mm/h
press.,
hPa
HPBL,
m
25 february, thu
thu2501:00−24e3119344 0.0 1024417
04:00−23e4128963 0.0 1020510
07:00−21e5148982 0.1 1016623
10:00−20ese61395100 0.8 1014637
13:00−15se4891100 0.9 1013535
16:00−13wsw5979100 0.4 10121410
19:00−17wsw31087100 0.5 1016754
22:00−21sw31091100 0.0 1018372
26 february, fri
fri2601:00−20sw41092100 0.0 1019799
04:00−21sw4992100 0.0 1020864
07:00−22sw31091100 0.1 1021699
10:00−21sw4987100 0.0 10221245
13:00−19wsw5880100 0.1 10231693
16:00−19wsw4879100 0.1 10241587
19:00−21sw2793100 0.1 1026332
22:00−22ssw2797100 0.0 1027281
27 february, sat
sat2701:00−22sw2698100 0.1 1028249
04:00−23wsw3894100 0.1 1030713
07:00−25sw3893100 0.1 1031659
10:00−25wsw3791100 0.1 1032793
13:00−23sw3588100 0.2 1033897
16:00−23sw3688100 0.1 1033892
19:00−24sw2696100 0.1 1034355
22:00−25wsw2598100 0.1 1034193
28 february, sun
sun2801:00−27wsw229799 0.1 103556
04:00−27wsw249799 0.0 1036133
07:00−27sw2597100 0.1 1038190
10:00−26sw3595100 0.1 1038335
13:00−23sw3590100 0.2 1038633
16:00−21sw2489100 0.1 1038663
19:00−25ssw2296100 0.1 103819
22:00−28sw129668 0.0 103819
1 march, mon
mon101:00−29sse119851 0.0 103719
04:00−30ese229930 0.0 103619
07:00−30e239840 0.0 103538
10:00−26ese379562 0.0 1032258
13:00−19ese379075 0.0 1029410
16:00−16ese498698 0.0 1025480
19:00−18ese3129293 0.0 1023477
22:00−16ese41293100 0.1 1021543